GEC8188 EDDF-KORD

Flight info

Callsign GEC8188
Flight time N/A
Altitude 34000
Route OBOKA3W OBOKA Z28 DIBIR DCT BUDIP DCT GISEB DCT RAVLO Y70 ABTOS N110 ERKIT DCT KUGUR/N0474F360 DCT PIKIL/M082F360 NATA NEEKO/N0470F380 DCT ROBBE DCT ULDON DCT CANSO DCT SSM WYNDE3
Aircraft B77L/H-SDE2E3FGHIJ1J3J4J5M1P2RWXYZ/LB1D1

Departure

Time 2026-04-16 13:38
Airport Frankfurt Main Airport (EDDF)

Arrival

Time N/A
Airport Chicago O'Hare International Airport (KORD)
Time Latitude Longitude Altitude Speed Heading
2026-04-16 12:27 50.03964 8.54381 358 ft 0 kts 70°
2026-04-16 13:26 50.03963 8.54376 350 ft 2 kts 70°
2026-04-16 13:26 50.03958 8.54351 360 ft 2 kts 71°
2026-04-16 13:27 50.03953 8.54327 357 ft 2 kts 73°
2026-04-16 13:27 50.03948 8.54302 360 ft 2 kts 75°
2026-04-16 13:27 50.03944 8.54277 357 ft 2 kts 109°
2026-04-16 13:27 50.03952 8.54254 360 ft 2 kts 138°
2026-04-16 13:28 50.03961 8.54244 360 ft 1 kts 156°
2026-04-16 13:28 50.03961 8.54243 360 ft 0 kts 156°
2026-04-16 13:30 50.03954 8.54248 360 ft 7 kts 156°
2026-04-16 13:31 50.03847 8.54317 358 ft 20 kts 160°
2026-04-16 13:31 50.03723 8.54387 353 ft 15 kts 153°
2026-04-16 13:31 50.03705 8.54508 354 ft 13 kts 73°
2026-04-16 13:31 50.03754 8.54726 358 ft 27 kts 70°
2026-04-16 13:32 50.03823 8.55013 360 ft 29 kts 70°
2026-04-16 13:32 50.03895 8.55293 358 ft 27 kts 69°
2026-04-16 13:32 50.03957 8.55556 357 ft 24 kts 71°
2026-04-16 13:32 50.04015 8.55799 357 ft 25 kts 69°
2026-04-16 13:33 50.04081 8.56069 358 ft 29 kts 66°
2026-04-16 13:33 50.04139 8.56321 354 ft 21 kts 71°
2026-04-16 13:33 50.04183 8.56518 359 ft 18 kts 71°
2026-04-16 13:33 50.04228 8.56708 356 ft 23 kts 69°
2026-04-16 13:34 50.04295 8.56969 358 ft 29 kts 68°
2026-04-16 13:34 50.04365 8.57265 354 ft 29 kts 70°
2026-04-16 13:34 50.04431 8.57553 358 ft 28 kts 70°
2026-04-16 13:34 50.04496 8.57818 355 ft 24 kts 70°
2026-04-16 13:35 50.04550 8.58048 357 ft 21 kts 70°
2026-04-16 13:35 50.04599 8.58261 355 ft 21 kts 70°
2026-04-16 13:35 50.04646 8.58465 357 ft 20 kts 72°
2026-04-16 13:35 50.04594 8.58595 358 ft 18 kts 159°
2026-04-16 13:36 50.04486 8.58590 357 ft 14 kts 225°
2026-04-16 13:36 50.04474 8.58549 358 ft 0 kts 252°
2026-04-16 13:36 50.04470 8.58531 359 ft 10 kts 252°
2026-04-16 13:37 50.04389 8.58185 355 ft 67 kts 249°
2026-04-16 13:37 50.04146 8.57171 358 ft 130 kts 250°
2026-04-16 13:37 50.03761 8.55613 382 ft 173 kts 252°
2026-04-16 13:37 50.03366 8.53892 931 ft 162 kts 254°
2026-04-16 13:38 50.03003 8.52211 1434 ft 169 kts 250°
2026-04-16 13:38 50.02525 8.50515 1885 ft 176 kts 236°
2026-04-16 13:38 50.01712 8.49015 2219 ft 192 kts 220°
2026-04-16 13:38 50.00497 8.48066 2791 ft 200 kts 194°
2026-04-16 13:39 49.99101 8.47765 3437 ft 206 kts 189°
2026-04-16 13:39 49.97668 8.47453 4091 ft 209 kts 190°
2026-04-16 13:39 49.96217 8.47128 4775 ft 212 kts 192°
2026-04-16 13:39 49.94717 8.46559 5131 ft 233 kts 199°
2026-04-16 13:40 49.93130 8.45801 5763 ft 243 kts 199°
2026-04-16 13:40 49.91593 8.44726 6399 ft 245 kts 223°
2026-04-16 13:40 49.90529 8.42648 6768 ft 257 kts 241°
2026-04-16 13:40 49.89613 8.40213 7357 ft 265 kts 240°
2026-04-16 13:41 49.88748 8.37684 8071 ft 268 kts 253°
2026-04-16 13:41 49.88596 8.34809 8781 ft 269 kts 275°
2026-04-16 13:41 49.88771 8.31867 9607 ft 278 kts 274°
2026-04-16 13:41 49.88930 8.28862 10587 ft 280 kts 275°
2026-04-16 13:42 49.89381 8.25880 11069 ft 298 kts 296°
2026-04-16 13:42 49.90612 8.23142 11274 ft 323 kts 307°
2026-04-16 13:42 49.92037 8.20266 11506 ft 350 kts 306°
2026-04-16 13:42 49.93527 8.17174 12088 ft 363 kts 305°
2026-04-16 13:43 49.95188 8.14182 12823 ft 370 kts 314°
2026-04-16 13:43 49.97117 8.11498 13742 ft 374 kts 318°
2026-04-16 13:43 49.99128 8.08929 14673 ft 374 kts 319°
2026-04-16 13:43 50.01157 8.06359 15509 ft 378 kts 318°
2026-04-16 13:44 50.03197 8.03736 16250 ft 383 kts 318°
2026-04-16 13:44 50.05247 8.01055 17012 ft 387 kts 317°
2026-04-16 13:44 50.07308 7.98325 17784 ft 390 kts 317°
2026-04-16 13:44 50.09376 7.95560 18551 ft 394 kts 317°
2026-04-16 13:45 50.11460 7.92759 19234 ft 397 kts 317°
2026-04-16 13:45 50.13563 7.89926 19895 ft 401 kts 317°
2026-04-16 13:45 50.15653 7.87107 20571 ft 403 kts 317°
2026-04-16 13:45 50.17780 7.84234 21250 ft 406 kts 317°
2026-04-16 13:46 50.19923 7.81337 21898 ft 409 kts 317°
2026-04-16 13:46 50.22087 7.78411 22544 ft 412 kts 317°
2026-04-16 13:46 50.24259 7.75469 23178 ft 416 kts 317°
2026-04-16 13:46 50.26609 7.72794 23770 ft 421 kts 330°
2026-04-16 13:47 50.29330 7.71003 24171 ft 428 kts 335°
2026-04-16 13:47 50.32110 7.69263 24656 ft 431 kts 334°
2026-04-16 13:47 50.34874 7.67409 25218 ft 432 kts 333°
2026-04-16 13:47 50.37596 7.65532 25739 ft 435 kts 332°
2026-04-16 13:48 50.40375 7.63610 26225 ft 438 kts 332°
2026-04-16 13:48 50.43181 7.61671 26695 ft 442 kts 332°
2026-04-16 13:48 50.46006 7.59725 27171 ft 445 kts 332°
2026-04-16 13:48 50.48854 7.57763 27638 ft 448 kts 332°
2026-04-16 13:49 50.51714 7.55790 28104 ft 451 kts 332°
2026-04-16 13:49 50.54595 7.53799 28582 ft 453 kts 332°
2026-04-16 13:49 50.57430 7.51635 28997 ft 452 kts 326°
2026-04-16 13:49 50.60090 7.49012 29419 ft 453 kts 322°
2026-04-16 13:50 50.62695 7.46179 29841 ft 454 kts 321°
2026-04-16 13:50 50.65258 7.43379 30398 ft 453 kts 321°
2026-04-16 13:50 50.67897 7.40584 31000 ft 449 kts 322°
2026-04-16 13:50 50.70499 7.37900 31671 ft 443 kts 323°
2026-04-16 13:51 50.73069 7.35255 32329 ft 437 kts 321°
2026-04-16 13:51 50.75351 7.32179 32833 ft 428 kts 308°
2026-04-16 13:51 50.77056 7.28384 33145 ft 423 kts 302°
2026-04-16 13:51 50.78699 7.24506 33435 ft 425 kts 303°
2026-04-16 13:52 50.80349 7.20718 33903 ft 422 kts 303°
2026-04-16 13:52 50.82028 7.16920 34246 ft 422 kts 304°
2026-04-16 13:52 50.83714 7.13126 34214 ft 421 kts 304°
2026-04-16 13:53 50.87065 7.05589 34230 ft 416 kts 304°
2026-04-16 13:53 50.90389 6.98076 34229 ft 420 kts 304°
2026-04-16 13:54 50.93790 6.90403 34237 ft 429 kts 304°
2026-04-16 13:54 50.97252 6.82581 34237 ft 437 kts 304°
2026-04-16 13:55 51.00748 6.74656 34213 ft 438 kts 304°
2026-04-16 13:55 51.04239 6.66715 34216 ft 438 kts 303°
2026-04-16 13:56 51.07720 6.58776 34213 ft 437 kts 303°
2026-04-16 13:56 51.11179 6.50836 34214 ft 436 kts 303°
2026-04-16 13:57 51.14612 6.42892 34214 ft 435 kts 303°